Theta_e
306 306 307 309 311 310 310 309 309 309 311 314 315 316 316 315 312 312 315 316 313 314 312 314 315 315 315 321 321 320 313 313 316 317 316 319 316 321 328 347 347 347 345 342 343
306 306 309 312 312 312 312 311 310 309 309 312 314 315 316 316 314 319 318 317 315 315 316 316 316 317 318 319 319 315 311 315 314 316 317 318 318 320 321 332 340 341 344 344 346
306 306 309 312 313 313 313 312 311 310 309 310 313 315 316 316 314 321 320 319 316 315 316 315 316 316 317 317 317 314 314 313 316 318 318 318 318 320 320 320 322 334 346 345 344
306 306 307 312 313 313 313 313 312 311 311 311 313 315 316 315 317 319 319 319 316 316 314 314 315 315 314 316 316 316 316 316 317 319 317 316 318 319 320 322 322 324 335 347 348
306 306 307 312 313 314 315 316 314 314 314 314 315 315 316 314 316 320 319 319 317 315 317 315 315 317 316 315 316 315 315 317 317 318 317 317 317 317 320 322 322 322 334 346 347
306 306 307 311 314 315 316 317 315 314 314 314 315 316 315 313 321 320 319 320 318 314 315 315 318 319 318 315 314 315 315 315 317 318 318 316 317 318 321 322 322 322 322 336 341
306 307 307 310 315 316 317 318 315 316 314 313 314 314 314 316 320 320 319 319 320 318 314 315 319 318 317 314 315 316 315 312 315 316 315 316 315 316 320 320 321 321 322 330 338
307 307 307 312 317 318 318 318 319 319 316 315 318 317 316 320 320 320 320 318 320 319 318 317 317 317 318 318 316 314 311 312 313 314 317 317 314 315 322 319 320 321 320 321 331
307 307 308 315 318 318 318 318 319 319 317 321 322 322 323 322 321 321 320 318 318 320 319 318 318 317 316 313 312 310 313 313 313 314 316 317 315 316 320 319 319 321 319 321 321
307 307 308 315 319 319 318 318 320 323 317 319 323 320 321 320 321 319 319 319 320 319 318 318 317 312 309 310 313 315 314 313 313 314 313 313 313 314 319 317 317 318 321 327 330
307 307 308 315 319 320 317 317 317 317 317 317 318 318 319 319 321 319 319 320 320 318 315 316 313 313 313 312 313 314 314 313 314 315 315 314 314 316 317 316 315 318 333 341 341
309 307 308 309 319 316 315 317 317 316 316 318 319 319 319 319 319 319 319 319 319 317 317 314 315 315 315 315 314 314 314 314 314 314 313 316 316 316 317 318 318 322 335 343 344
308 308 308 309 319 315 314 314 316 317 315 319 320 320 319 319 319 319 319 319 317 317 317 316 317 317 317 317 318 316 316 316 316 317 317 317 315 316 316 321 324 332 334 338 340
308 308 308 309 317 317 316 314 314 316 317 322 320 319 318 319 319 320 319 320 318 318 317 316 316 318 316 318 317 318 317 317 318 317 317 317 318 315 316 321 324 324 331 339 339
309 308 308 308 311 318 316 314 315 318 319 322 318 318 318 317 317 320 320 319 318 318 316 317 317 316 317 319 320 319 319 318 319 317 316 316 315 315 324 325 324 325 336 340 345
310 308 308 309 312 316 316 317 318 321 323 318 317 316 316 316 317 319 319 319 318 317 316 316 317 317 319 318 319 318 318 316 314 313 317 316 315 314 326 325 324 324 333 334 338
311 309 310 312 317 315 314 319 319 322 318 316 316 315 314 315 316 317 316 314 316 317 316 316 317 317 317 318 317 315 316 318 319 318 319 319 318 325 325 322 322 323 324 330 332
311 316 315 315 315 314 318 317 324 318 316 315 315 316 316 315 316 316 316 316 314 315 315 317 317 316 316 318 318 317 317 317 322 322 321 319 325 328 323 321 320 321 320 322 327
318 317 317 315 317 319 319 318 319 315 315 315 315 316 316 316 316 315 315 316 314 314 316 315 316 315 316 316 317 317 318 318 319 320 322 320 327 326 325 322 320 320 319 318 317
319 319 317 316 315 317 316 320 315 315 315 314 316 315 315 315 316 315 316 315 314 314 314 315 314 315 315 316 317 319 318 320 316 319 321 322 322 327 329 323 320 319 319 318 315
317 319 317 318 316 318 317 319 315 316 315 315 315 315 315 315 315 315 316 315 314 313 313 313 313 312 312 314 317 317 320 319 316 320 325 322 322 326 326 324 320 319 317 317 317
318 314 318 317 316 312 312 314 316 315 316 315 313 315 315 314 314 315 316 315 314 313 314 311 310 311 313 313 318 318 320 318 315 316 320 320 320 321 324 323 321 320 320 322 319
315 318 317 317 312 312 313 315 316 315 314 314 314 314 313 314 314 314 315 315 315 313 312 310 308 310 311 309 310 316 319 319 315 315 319 323 319 321 321 323 322 319 318 318 320
315 311 315 315 313 312 313 315 316 316 315 314 313 313 313 314 313 314 314 315 314 315 313 310 307 310 312 312 311 314 315 318 316 316 316 318 319 318 321 320 321 320 318 317 319
313 311 312 309 310 312 312 314 316 316 314 314 313 313 314 314 313 314 313 313 314 312 312 307 310 310 310 312 315 315 314 315 318 317 318 317 317 317 318 319 321 321 320 319 320
312 313 312 311 311 311 311 314 315 316 314 314 313 313 311 311 312 313 313 312 312 311 310 308 311 314 315 314 314 313 312 312 313 314 315 316 316 315 316 319 321 319 320 320 319
306 309 311 310 309 311 312 313 315 312 313 313 312 311 311 312 313 313 313 313 312 310 308 308 308 308 310 312 312 310 312 313 314 315 315 311 312 313 317 320 320 319 318 318 313
Wind_Speed
20 20 18 17 16 16 15 14 12 11 11 10 10 9 10 10 11 13 8 5 4 6 9 4 1 2 6 4 4 3 4 1 3 2 8 19 9 14 3 10 7 8 8 4 27
21 21 18 17 17 17 16 14 12 10 10 9 9 9 9 10 10 6 7 8 2 5 5 2 5 4 4 3 4 4 4 7 7 3 6 17 9 17 5 2 7 12 14 7 25
22 21 18 17 18 18 17 14 12 9 8 8 8 7 7 9 3 3 7 9 2 6 6 4 5 4 2 1 2 3 5 5 6 15 13 12 21 16 2 0 5 10 14 18 27
23 22 19 16 17 17 17 14 12 9 8 7 7 6 5 5 3 5 9 6 4 4 7 4 5 3 2 1 2 1 7 6 10 16 8 5 12 7 8 6 1 10 10 29 30
23 22 20 16 15 15 16 16 14 10 7 5 5 4 4 3 2 5 10 12 3 3 8 5 6 4 1 2 3 3 5 9 10 14 12 13 12 10 9 8 3 5 7 31 30
22 21 20 15 13 13 17 18 13 11 8 5 2 1 2 2 4 4 7 10 10 0 6 9 4 2 3 3 3 3 8 10 8 11 8 4 6 6 9 10 8 6 9 17 36
22 21 20 15 11 12 16 17 12 12 8 5 3 1 2 2 2 1 5 5 7 6 1 6 1 3 4 5 4 5 6 6 4 3 6 6 8 4 13 13 14 12 13 16 28
22 20 18 14 9 11 15 16 9 9 10 7 6 3 0 2 2 2 5 1 2 2 3 2 6 4 2 6 8 5 5 6 6 7 5 4 8 12 25 18 21 19 15 17 22
21 20 17 10 8 11 14 15 5 5 12 6 6 7 3 3 2 3 3 2 3 4 4 5 2 3 4 4 5 7 2 4 10 6 3 2 10 14 33 24 27 28 14 14 21
22 18 15 6 5 10 15 13 4 3 13 5 6 4 4 6 2 5 5 4 4 1 2 3 4 4 4 6 2 4 4 4 6 6 6 7 10 11 30 20 28 21 11 17 23
23 18 14 5 2 9 12 9 9 3 15 6 6 6 7 8 3 1 3 5 4 5 3 5 5 3 7 5 5 3 3 5 12 15 3 10 6 13 19 10 11 11 20 24 25
23 19 14 6 1 6 12 9 10 7 8 6 5 9 6 8 3 2 4 3 3 1 2 6 3 8 4 5 5 5 5 9 8 11 4 9 10 7 5 6 7 18 27 30 29
24 19 14 6 4 4 6 10 7 8 1 7 4 6 4 3 2 8 9 5 3 1 2 4 8 4 2 6 3 3 4 5 7 11 3 4 7 6 5 19 17 3 17 30 30
25 20 14 7 5 4 2 7 6 6 4 4 2 1 1 2 2 6 12 4 1 4 3 4 4 3 7 4 1 2 5 7 6 3 6 2 9 5 8 5 14 16 8 7 14
24 20 13 7 4 3 7 12 5 3 3 2 1 2 1 1 3 6 9 4 3 3 5 5 5 7 6 5 4 3 9 6 5 5 3 2 1 5 7 7 13 16 16 14 15
23 19 11 5 3 3 9 3 2 4 1 2 3 4 4 5 6 2 3 5 5 4 4 4 4 5 4 3 3 8 7 5 5 2 4 6 3 4 4 6 7 13 20 19 24
24 14 7 5 3 5 10 3 4 4 4 5 3 4 3 5 7 6 4 7 3 4 5 6 3 4 7 5 8 12 8 5 5 4 5 6 3 2 6 5 6 7 19 18 26
19 9 12 10 7 7 2 4 3 3 3 3 4 4 5 7 4 7 4 3 7 5 3 3 6 5 6 4 4 5 4 4 5 2 5 5 4 3 7 6 9 11 23 28 26
9 11 10 9 10 11 3 5 2 2 2 4 4 6 5 5 4 4 4 3 2 2 5 3 4 5 5 3 1 4 2 1 1 2 3 3 2 3 6 4 8 17 27 24 29
7 8 9 12 8 9 5 2 0 1 2 4 3 4 4 5 4 5 2 1 3 2 4 4 3 2 5 6 5 3 2 1 3 1 4 4 4 4 10 7 5 14 20 17 33
7 3 10 12 8 4 3 2 1 3 2 3 2 2 2 2 1 3 3 0 3 2 3 3 3 5 3 4 4 4 3 5 3 2 2 2 4 6 7 9 7 15 20 22 27
11 3 15 11 5 3 2 5 8 1 5 3 4 3 2 2 1 1 1 3 1 2 2 1 4 1 2 5 3 3 2 3 4 3 2 2 6 3 4 5 14 7 17 17 15
14 6 11 7 3 4 7 4 6 6 3 1 2 1 1 2 2 1 3 9 8 2 4 4 2 3 6 5 4 2 3 3 3 2 6 2 4 5 6 9 8 10 16 17 23
10 4 6 9 6 3 5 4 5 7 3 2 2 3 3 1 1 2 3 4 5 4 4 3 3 7 6 6 3 5 4 6 6 4 4 6 6 7 5 6 14 22 20 21 12
8 3 4 4 5 6 2 3 5 5 2 4 3 3 3 0 3 2 2 4 3 5 3 4 4 4 5 6 6 8 8 7 9 11 8 12 10 11 11 15 23 25 23 22 17
7 6 6 8 9 4 4 4 3 6 2 3 3 5 4 5 7 6 3 2 5 2 2 2 2 2 4 7 7 8 12 12 13 12 10 14 15 16 12 21 19 23 21 19 20
6 4 4 5 5 2 0 4 6 13 3 2 3 4 4 6 8 8 10 10 10 7 5 4 5 2 4 3 6 7 3 5 1 2 3 4 5 2 3 12 21 18 16 17 18
Wind_Direction
357 353 351 350 344 337 330 322 315 307 303 301 304 306 310 320 317 317 332 318 262 224 211 249 269 179 178 179 178 158 60 135 237 246 276 313 24 357 112 167 166 201 259 209 184
360 358 357 356 354 351 342 333 321 311 304 300 302 302 310 323 329 82 39 14 242 172 162 163 135 128 159 190 179 115 123 214 202 242 286 309 339 333 19 100 283 264 255 209 189
1 0 360 358 357 356 353 347 337 322 307 301 298 294 309 330 353 71 32 19 336 192 175 168 150 89 65 12 203 158 188 213 239 276 297 295 304 315 182 283 332 264 210 191 193
0 0 360 357 355 357 2 1 355 342 321 305 294 288 296 327 147 52 29 15 37 189 165 160 149 117 67 252 237 298 250 254 289 307 317 269 305 274 232 204 274 333 232 191 197
0 359 360 359 359 0 4 1 356 351 341 325 308 287 302 315 62 84 39 30 360 197 190 174 159 148 182 243 329 201 281 312 317 308 296 288 258 248 250 260 249 292 233 197 203
0 359 359 360 3 2 358 359 356 0 355 354 345 280 286 351 75 74 22 28 25 50 177 176 158 59 296 258 153 244 281 292 302 306 305 240 269 154 258 244 247 255 270 208 202
360 360 359 1 6 3 359 359 3 6 11 18 27 321 279 102 139 353 359 360 17 26 79 164 360 326 324 313 332 291 336 342 327 14 308 326 334 251 281 276 259 226 237 230 196
359 0 359 4 18 16 8 359 4 28 29 39 31 5 10 101 355 284 290 296 305 351 20 29 334 303 298 317 358 16 49 8 291 327 321 55 277 281 318 277 260 251 238 226 231
357 0 360 12 38 29 12 1 13 27 18 4 14 10 51 344 67 354 301 302 339 290 320 318 325 44 29 54 9 6 284 320 324 308 340 28 291 286 305 288 265 250 243 220 214
354 358 358 5 34 18 14 360 47 352 351 346 353 3 35 349 133 53 74 86 45 358 147 39 42 48 39 58 259 289 333 301 273 279 339 306 267 290 309 287 248 238 217 204 203
350 352 358 338 38 19 17 16 9 352 337 296 294 289 297 348 223 26 92 124 71 64 49 25 58 281 256 201 208 247 238 257 278 282 260 274 277 288 315 306 241 197 184 183 181
348 345 355 335 235 45 46 60 30 328 310 324 272 275 297 302 309 202 158 89 100 55 59 13 307 260 241 237 229 231 262 280 284 275 152 287 288 285 302 311 278 184 176 176 167
347 342 348 344 192 122 47 34 1 342 298 297 260 276 310 209 224 195 183 153 123 158 126 154 248 347 296 307 297 268 217 265 253 305 254 267 303 329 346 36 35 66 166 170 170
346 338 341 360 188 206 359 332 312 335 69 284 274 243 202 202 310 217 193 165 125 206 183 218 289 13 332 314 4 299 296 265 266 347 291 121 286 307 350 353 12 2 14 120 151
347 334 338 340 242 212 301 315 263 275 66 189 186 135 360 107 299 216 195 201 181 196 89 264 304 348 38 331 325 270 315 285 261 246 302 66 60 253 353 333 354 336 78 98 111
345 334 337 338 189 271 308 287 274 46 135 56 52 6 25 8 5 66 104 52 70 75 17 269 30 48 345 324 93 307 341 8 25 92 269 337 195 270 345 331 331 346 68 85 116
345 347 19 50 134 321 317 279 40 115 339 345 344 358 55 339 359 29 69 37 57 43 2 342 3 330 27 24 354 6 34 348 327 352 247 334 16 292 352 353 347 343 57 81 98
353 16 82 56 17 345 337 55 94 56 28 343 353 4 76 15 13 4 115 78 18 52 78 56 327 29 354 63 280 284 134 165 276 273 274 341 320 342 89 69 59 63 73 78 87
29 85 63 27 14 8 3 61 200 32 341 3 6 51 1 358 39 46 50 113 43 9 113 61 280 337 53 337 332 308 49 205 144 313 348 237 139 201 160 118 86 75 72 69 78
51 84 37 359 332 342 64 196 335 20 42 57 71 57 32 345 37 31 9 292 135 37 147 195 304 26 301 6 26 56 116 15 14 313 288 304 286 295 181 161 136 76 73 69 89
24 68 8 345 340 356 98 277 14 37 75 82 130 27 62 31 16 338 1 319 181 136 95 126 123 292 22 0 310 350 21 54 98 161 231 293 272 6 290 171 191 119 99 83 78
13 42 5 5 46 24 37 314 323 185 68 52 95 87 106 42 359 320 354 328 221 128 97 54 137 107 252 299 11 94 134 127 122 249 256 290 261 160 101 191 253 184 155 166 133
352 322 18 14 69 350 323 318 13 15 3 48 117 128 174 187 321 228 44 28 15 94 165 180 30 27 351 345 356 10 202 167 103 67 223 226 264 191 153 135 233 224 204 203 172
356 356 355 48 73 63 356 296 325 326 271 126 137 79 52 312 261 284 1 5 30 70 87 115 150 161 199 215 179 286 238 215 171 177 209 223 281 284 193 187 185 211 209 198 189
9 16 357 313 338 342 289 293 320 323 47 48 61 111 144 266 345 250 344 334 30 21 67 96 202 190 241 239 241 251 272 249 200 231 219 253 229 253 223 198 207 203 201 203 212
6 357 343 299 312 334 360 352 323 328 238 256 175 167 183 174 196 209 201 213 230 20 89 32 258 193 260 256 260 272 275 265 265 243 241 248 258 250 266 206 183 192 197 193 197
357 313 312 304 338 16 226 341 310 345 319 245 156 140 163 224 211 231 237 234 225 183 173 173 158 105 265 272 312 293 232 259 169 35 291 248 268 135 102 155 172 174 175 184 169